Weather Roundup
Issued by NWS

Home | Current Version | Previous Version | Graphics & Text | Print | Product List | Glossary Off
Versions: 1 2 3 4 5 6 7 8 9 10 11 12 13 14 15 16 17 18 19 20 21 22 23 24 25 26 27 28 29 30 31 32 33 34 35 36 37 38 39 40 41 42 43 44 45 46 47 48 49 50

000
NZUS93 KARX 261859
HRRWXR

CURRENT HOURLY OBSERVATIONS ACROSS
MUCH OF THE UPPER MISSISSIPPI VALLEY
NATIONAL WEATHER SERVICE LA CROSSE WI
200 PM CDT THU MAR 26 2015


...SOUTHEAST MINNESOTA...


CITY           SKY/WX    TMP DP  RH WIND       PRES   REMARKS
ROCHESTER      CLOUDY    30  21  69 NW18      30.08S WCI  18
ROCHESTER/MAYO CLOUDY    32  21  64 NW8G23    30.09R WCI  25
WINONA         CLOUDY    34  21  60 NW16G22   30.08S WCI  23
AUSTIN         CLOUDY    30  19  64 NW14      30.11S WCI  20
ALBERT LEA     PTSUNNY   34  21  60 NW13G18   30.11F WCI  25
DODGE CENTER   CLOUDY    30  21  69 NW13      30.09S WCI  20
PRESTON          N/A     30  21  69 NW17      30.08S WCI  18
OWATONNA       CLOUDY    30  19  64 NW12      30.11F WCI  21
FARIBAULT      CLOUDY    34  19  55 NW12      30.12S WCI  25
$$

...ELSEWHERE IN MINNESOTA...


CITY           SKY/WX    TMP DP  RH WIND       PRES   REMARKS
MINNEAPOLIS    CLOUDY    36  17  46 N13G22    30.11S WCI  27
INTNL FALLS    SUNNY     24   7  48 N13       30.18S WCI  12
DULUTH         MOSUNNY   27   7  42 N15       30.08S WCI  15
RED WING       CLOUDY    36  18  48 NW9       30.09S WCI  29
REDWOOD FALLS  PTSUNNY   35  21  56 NW15G23   30.17S WCI  25
MANKATO        CLOUDY    32  19  59 NW14      30.14F WCI  22
WORTHINGTON    CLOUDY    34  19  55 N14G21    30.16F WCI  24
FAIRMONT       PTSUNNY   36  19  51 NW16      30.13S WCI  26
$$

...SOUTHWEST WISCONSIN...


CITY           SKY/WX    TMP DP  RH WIND       PRES   REMARKS
LA CROSSE      CLOUDY    35  22  58 NW12      30.06S WCI  27
PRAIRIE DU CHI CLOUDY    35  21  57 NW12G18   30.06S WCI  26
BOSCOBEL       CLOUDY    35  22  58 NW9       30.05R WCI  28
LONE ROCK      NOT AVBL
PLATTEVILLE    CLOUDY    36  25  64 NW13G22   30.01F WCI  28
FORT MC COY    CLOUDY    35  19  52 NW15G23   30.05R WCI  25
VIROQUA        CLOUDY    32  22  67 NW15      30.03R WCI  21
WIS DELLS      NOT AVBL
$$

...ELSEWHERE IN WISCONSIN...


CITY           SKY/WX    TMP DP  RH WIND       PRES   REMARKS
MILWAUKEE      CLOUDY    37  19  48 NW12      29.95F WCI  29
MADISON        CLOUDY    35  19  52 NW13      29.99R WCI  26
GREEN BAY      CLOUDY    33  21  61 NW15      29.95F WCI  23
EAU CLAIRE     NOT AVBL
BLACK RVR FLS  CLOUDY    36  16  43 N10G16    30.04R WCI  29
MEDFORD        CLOUDY    27  15  60 NW16      30.00S WCI  14
WAUSAU         CLOUDY    29  13  51 NW12      29.97S WCI  19
WIS RAPIDS     CLOUDY    30  15  53 N16       30.02S WCI  19
MARSHFIELD     CLOUDY    31  17  56 N14       30.01R WCI  21
RICE LAKE      CLOUDY    30  14  51 NW10      30.09S WCI  21
$$

...NORTHEAST IOWA...


CITY           SKY/WX    TMP DP  RH WIND       PRES   REMARKS
DECORAH        CLOUDY    30  21  69 N17       30.06S WCI  18
MASON CITY     MOSUNNY   37  21  52 NW20      30.12F WCI  27
CHARLES CITY   PTSUNNY   34  25  69 NW21      30.11R WCI  22
OELWEIN        PTSUNNY   36  25  64 NW18G25   30.09R WCI  25
$$

...ELSEWHERE IN IOWA...


CITY           SKY/WX    TMP DP  RH WIND       PRES   REMARKS
DES MOINES     PTSUNNY   45  22  40 N18G24    30.12F
IOWA CITY      SUNNY     45  22  40 NW18G30   30.07F
FORT DODGE     CLOUDY    39  25  56 NW9G16    30.14F WCI  33
$$

...NORTHERN ILLINOIS...


CITY           SKY/WX    TMP DP  RH WIND       PRES   REMARKS
CHICAGO-OHARE  PTSUNNY   41  24  51 NW13      29.95F
CHICAGO-MIDWAY PTSUNNY   45  24  43 W13G21    29.95F
MOLINE         SUNNY     45  23  42 N21G30    30.02F
ROCKFORD       CLOUDY    38  22  52 NW13      30.01S WCI  30
PEORIA         MOSUNNY   48  25  40 NW10G24   30.01F
$$

NOTE: "FAIR" INDICATES FEW OR NO CLOUDS BELOW 12,000 FEET WITH NO
SIGNIFICANT WEATHER AND/OR OBSTRUCTIONS TO VISIBILITY. WIND
SPEEDS ARE IN MILES-PER-HOUR.



USA.gov is the U.S. government's official web portal to all federal, state and local government web resources and services.